Hourly Data Report for May 29, 2012

All times are specified in Local Standard Time (LST). Add 1 hour to adjust for Daylight Saving Time where and when it is observed.

YARMOUTH A
NOVA SCOTIA

43°49'37.000" N
66°05'17.000" W
42.90 m
8206495
71603
YQI

Download Data

Hourly Data (May 2012)
Hourly Data Report for May 29, 2012
Temp Definition
°C
Dew Point Temp Definition
°C
Rel Hum Definition
%
Wind Dir Definition
10's deg

Wind Spd Definition
km/h
Visibility Definition
km
Stn Press Definition
kPa
Hmdx Definition


Wind Chill Definition


Weather Definition


TIME
00:00 12.3 9.5 83 1 8 10.0 101.12     LegendNANA
01:00 12.3 9.5 83 35 5 10.0 101.10     LegendNANA
02:00 11.6 10.5 93 32 5 10.0 101.13     Rain Showers
03:00 11.8 10.7 93   0 10.0 101.16     Rain Showers
04:00 10.3 8.6 89 17 9 10.0 101.13     Rain Showers
05:00 10.0 8.9 93 11 11 10.0 101.11     Thunderstorms,Rain Showers
06:00 10.1 8.9 92 11 14 10.0 101.14     Thunderstorms,Rain Showers
07:00 9.6 8.4 92 11 15 6.4 101.09     Rain Showers,Fog
08:00 10.9 9.0 88 13 18 10.0 101.11     Cloudy
09:00 11.6 8.7 82 13 24 10.0 101.16     LegendNANA
10:00 13.4 8.7 73 12 28 10.0 101.04     LegendNANA
11:00 13.1 7.8 70 11 20 10.0 101.25     Cloudy
12:00 12.4 9.3 81 13 21 10.0 101.17     Rain Showers
13:00 11.4 9.5 88 12 28 10.0 100.92     LegendNANA
14:00 11.2 9.5 89 13 31 10.0 100.81     Cloudy
15:00 11.6 9.7 88 13 34 10.0 100.70     LegendNANA
16:00 11.6 9.7 88 12 23 10.0 100.83     LegendNANA
17:00 11.3 9.6 89 11 19 10.0 100.86     Cloudy
18:00 10.9 9.2 89 11 32 10.0 100.81     LegendNANA
19:00 10.1 9.0 93 11 31 9.7 100.79     Fog
20:00 9.8 9.0 95 12 32 6.4 100.76     Drizzle,Fog
21:00 9.6 9.2 97 12 24 4.8 100.82     Drizzle,Fog
22:00 9.5 9.2 98 12 24 8.1 100.72     Thunderstorms,Rain Showers,Fog
23:00 9.8 9.7 99 12 24 4.0 100.65     Rain Showers,Fog

Notes on Data Quality.

Legend

  • E = Estimated
  • M = Missing
  • NA = Not Available
Date modified: